METEOR 2-17 DEB, 35369

Orbit data source: Space-Track

METEOR 2-17 DEB, 35369 is space debris in LEO originally from a launch on Sat, 30 Jan 1988 UTC launched from the Plesetsk Missile And Space Complex (PKMTR). Debris objects in space refer to the collection of defunct objects orbiting the Earth. Examples of debris include non-operational satellites, rocket bodies, and fragments generated from explosions, collisions, or faulty payload assembly.

Loading next visibility...
Identifier
35369, 1988-005AD
Orbit
LEO
Country
Flag of CISCIS
Related business
Manufacturer
Unknown
Mission
Spacecraft
Bus & Motor
Unknown
Mass
Unknown
Launch date (UTC)
1988-01-30 (38 years ago)
Launch vehicle
Unknown
Launch site
Plesetsk Missile And Space Complex (PKMTR)
Object type
Payload
Rocket body
Debris
Shape & HBR
Unknown shape, 0.1 m
Radar Cross Section
Small (<0.1 m²)

Expand to show TLE details & history
Last TLE update: 3 days ago

TLE from 3 days ago
0 METEOR 2-17 DEB
1 35369U 88005AD  25349.46806541  .00002357  00000-0  16267-2 0  9995
2 35369  82.5229  61.0510 0017372 156.3912 218.0928 13.98761350720211
Epoch: 2025-12-15T11:14Z
TLE epoch observation values (Epoch: 2025-12-15T11:14:00.851Z)
Latitude
14.20706°
Longitude
170.07542°
Altitude
910.241 km
Speed
7.393 km/s
True Right ascension
04h 11m 46s
True Declination
14° 07' 38"
Sunlit
Object was in full shadow at epoch
Visualization orbit readout
Latitude
Unknown
Longitude
Unknown
Altitude
Unknown
Speed
Unknown
Apparent Right ascension
Unknown
Apparent Declination
Unknown
Sunlit
N/A
Visualization observer readout
Local Sidereal Time
20:37:24
Azimuth
Unknown
Elevation
Unknown
Doppler factor
Unknown
Orbital elements
Apogee altitude
907.855 km
Perigee altitude
882.585 km
Semi-major axis
7,273.357 km
Eccentricity
0.00174
Inclination
82.5229°
RAAN
61.051°
Arg. of periapsis
156.3912°
True anomaly
217.9702°
Mean anomaly
218.0928°
Eccentric anomaly
218.03148°
Mean motion
3.49897 °/min
Orbital period
102.89 mins
BSTAR
0.0016267
Loading maneuver chart data...
Computing Atmospheric mass density...
Loading historical data...
Loading historical data...
Loading historical data...
Loading historical data...
Loading historical data...
Loading historical data...
Loading historical data...

Documentation

Showing up to 5 results
|